Wetterdaten: Samstag, 06.02.2016
Datum Zeit Auen-Temp. Temp gefhlt Luftfeuchte Luftdruck Regen Wind Richtung Richtung Taupunkt Windben
06.02.2016 00:00 -0,5 C -1,0 C 90 % 1025,6 hPa 0,0 mm 0,0 km/h (0 Bft) SO 135 -1,9 C 0,0 km/h (0 Bft)
06.02.2016 00:05 -0,6 C -1,0 C 90 % 1025,6 hPa 0,0 mm 0,0 km/h (0 Bft) O-NO 67 -2,0 C 0,0 km/h (0 Bft)
06.02.2016 00:10 -0,6 C -1,0 C 90 % 1025,6 hPa 0,0 mm 0,0 km/h (0 Bft) O-NO 67 -2,0 C 0,0 km/h (0 Bft)
06.02.2016 00:15 -0,5 C -0,9 C 90 % 1025,6 hPa 0,0 mm 0,0 km/h (0 Bft) O-SO 112 -1,9 C 0,0 km/h (0 Bft)
06.02.2016 00:20 -0,8 C -1,1 C 90 % 1025,6 hPa 0,0 mm 0,0 km/h (0 Bft) O 90 -2,2 C 0,0 km/h (0 Bft)
06.02.2016 00:25 -0,8 C -1,1 C 90 % 1025,2 hPa 0,0 mm 0,0 km/h (0 Bft) SO 135 -2,2 C 0,0 km/h (0 Bft)
06.02.2016 00:30 -1,0 C -1,3 C 90 % 1025,2 hPa 0,0 mm 0,0 km/h (0 Bft) SO 135 -2,4 C 0,0 km/h (0 Bft)
06.02.2016 00:35 -1,0 C -1,4 C 90 % 1025,2 hPa 0,0 mm 0,0 km/h (0 Bft) SO 135 -2,4 C 0,0 km/h (0 Bft)
06.02.2016 00:40 -1,1 C -1,5 C 90 % 1025,2 hPa 0,0 mm 0,0 km/h (0 Bft) N-NO 22 -2,5 C 0,0 km/h (0 Bft)
06.02.2016 00:45 -1,1 C -1,5 C 90 % 1024,9 hPa 0,0 mm 0,0 km/h (0 Bft) NW 315 -2,5 C 0,0 km/h (0 Bft)
06.02.2016 00:50 -1,4 C -1,7 C 90 % 1024,9 hPa 0,0 mm 0,0 km/h (0 Bft) NW 315 -2,8 C 0,0 km/h (0 Bft)
06.02.2016 00:55 -1,5 C -1,8 C 90 % 1024,9 hPa 0,0 mm 0,0 km/h (0 Bft) NW 315 -2,9 C 0,0 km/h (0 Bft)
06.02.2016 01:00 -1,6 C -1,9 C 89 % 1024,9 hPa 0,0 mm 0,0 km/h (0 Bft) W-NW 292 -3,2 C 0,0 km/h (0 Bft)
06.02.2016 01:05 -1,3 C -1,7 C 90 % 1024,6 hPa 0,0 mm 0,0 km/h (0 Bft) W 270 -2,7 C 0,0 km/h (0 Bft)
06.02.2016 01:10 -1,0 C -1,4 C 90 % 1024,6 hPa 0,0 mm 0,8 km/h (0 Bft) N-NW 337 -2,4 C 0,0 km/h (0 Bft)
06.02.2016 01:15 -1,3 C -1,6 C 90 % 1024,6 hPa 0,0 mm 0,5 km/h (0 Bft) W-SW 247 -2,7 C 0,0 km/h (0 Bft)
06.02.2016 01:20 -1,0 C -1,5 C 90 % 1024,6 hPa 0,0 mm 0,0 km/h (0 Bft) SW 225 -2,4 C 0,0 km/h (0 Bft)
06.02.2016 01:25 -1,3 C -1,7 C 90 % 1024,6 hPa 0,0 mm 0,0 km/h (0 Bft) NW 315 -2,7 C 0,0 km/h (0 Bft)
06.02.2016 01:30 -1,4 C -1,8 C 90 % 1024,6 hPa 0,0 mm 0,0 km/h (0 Bft) W-SW 247 -2,8 C 0,0 km/h (0 Bft)
06.02.2016 01:35 -1,2 C -1,6 C 90 % 1024,6 hPa 0,0 mm 0,0 km/h (0 Bft) W 270 -2,6 C 0,0 km/h (0 Bft)
06.02.2016 01:40 -1,0 C -1,4 C 90 % 1024,6 hPa 0,0 mm 0,0 km/h (0 Bft) W-NW 292 -2,4 C 0,0 km/h (0 Bft)
06.02.2016 01:45 -1,2 C -1,5 C 90 % 1024,6 hPa 0,0 mm 0,0 km/h (0 Bft) NW 315 -2,6 C 0,0 km/h (0 Bft)
06.02.2016 01:50 -1,2 C -1,5 C 90 % 1024,6 hPa 0,0 mm 0,0 km/h (0 Bft) NO 45 -2,6 C 0,0 km/h (0 Bft)
06.02.2016 01:55 -1,4 C -1,7 C 90 % 1024,6 hPa 0,0 mm 0,0 km/h (0 Bft) O-NO 67 -2,8 C 0,0 km/h (0 Bft)
06.02.2016 02:00 -1,1 C -1,5 C 90 % 1024,6 hPa 0,0 mm 0,0 km/h (0 Bft) N-NW 337 -2,5 C 0,0 km/h (0 Bft)
06.02.2016 02:05 -1,1 C -1,5 C 90 % 1024,6 hPa 0,0 mm 0,0 km/h (0 Bft) N-NO 22 -2,5 C 0,0 km/h (0 Bft)
06.02.2016 02:10 -1,4 C -1,7 C 90 % 1024,6 hPa 0,0 mm 0,0 km/h (0 Bft) O-NO 67 -2,8 C 0,0 km/h (0 Bft)
06.02.2016 02:15 -1,0 C -1,4 C 90 % 1024,6 hPa 0,0 mm 0,0 km/h (0 Bft) O-SO 112 -2,4 C 0,0 km/h (0 Bft)
06.02.2016 02:20 -1,0 C -1,4 C 90 % 1024,6 hPa 0,0 mm 0,0 km/h (0 Bft) NO 45 -2,4 C 0,0 km/h (0 Bft)
06.02.2016 02:25 -1,0 C -1,4 C 90 % 1024,6 hPa 0,0 mm 0,0 km/h (0 Bft) SO 135 -2,4 C 0,0 km/h (0 Bft)
06.02.2016 02:30 -0,9 C -1,4 C 91 % 1024,6 hPa 0,0 mm 0,0 km/h (0 Bft) O-NO 67 -2,2 C 0,0 km/h (0 Bft)
06.02.2016 02:35 -0,8 C -1,3 C 91 % 1024,6 hPa 0,0 mm 0,0 km/h (0 Bft) N-NO 22 -2,1 C 0,0 km/h (0 Bft)
06.02.2016 02:40 -0,8 C -1,3 C 91 % 1024,6 hPa 0,0 mm 0,0 km/h (0 Bft) O-NO 67 -2,1 C 0,0 km/h (0 Bft)
06.02.2016 02:45 -1,0 C -1,4 C 91 % 1024,5 hPa 0,0 mm 0,0 km/h (0 Bft) N-NO 22 -2,3 C 0,0 km/h (0 Bft)
06.02.2016 02:50 -0,9 C -1,3 C 91 % 1024,5 hPa 0,0 mm 0,0 km/h (0 Bft) N-NO 22 -2,2 C 0,0 km/h (0 Bft)
06.02.2016 02:55 -1,0 C -1,4 C 91 % 1024,5 hPa 0,0 mm 0,0 km/h (0 Bft) N-NW 337 -2,3 C 0,0 km/h (0 Bft)
06.02.2016 03:00 -1,0 C -1,4 C 90 % 1024,5 hPa 0,0 mm 0,0 km/h (0 Bft) SO 135 -2,4 C 0,0 km/h (0 Bft)
06.02.2016 03:05 -1,1 C -1,5 C 90 % 1024,2 hPa 0,0 mm 0,0 km/h (0 Bft) O-SO 112 -2,5 C 0,0 km/h (0 Bft)
06.02.2016 03:10 -0,9 C -1,3 C 91 % 1024,2 hPa 0,0 mm 0,0 km/h (0 Bft) O-NO 67 -2,2 C 0,0 km/h (0 Bft)
06.02.2016 03:15 -0,9 C -1,3 C 90 % 1024,2 hPa 0,0 mm 0,3 km/h (0 Bft) NW 315 -2,3 C 3,1 km/h (1 Bft)
06.02.2016 03:20 -0,8 C -1,2 C 91 % 1024,2 hPa 0,0 mm 0,3 km/h (0 Bft) W-NW 292 -2,1 C 0,0 km/h (0 Bft)
06.02.2016 03:25 -0,9 C -1,3 C 90 % 1024,2 hPa 0,0 mm 0,0 km/h (0 Bft) N-NO 22 -2,3 C 0,0 km/h (0 Bft)
06.02.2016 03:30 -1,1 C -1,5 C 90 % 1024,2 hPa 0,0 mm 0,0 km/h (0 Bft) N-NO 22 -2,5 C 0,0 km/h (0 Bft)
06.02.2016 03:35 -1,3 C -1,7 C 90 % 1024,2 hPa 0,0 mm 0,0 km/h (0 Bft) N-NW 337 -2,7 C 0,0 km/h (0 Bft)
06.02.2016 03:40 -0,8 C -1,3 C 90 % 1024,2 hPa 0,0 mm 0,0 km/h (0 Bft) N-NW 337 -2,2 C 0,0 km/h (0 Bft)
06.02.2016 03:45 -0,5 C -1,1 C 90 % 1024,2 hPa 0,0 mm 0,0 km/h (0 Bft) NO 45 -1,9 C 0,0 km/h (0 Bft)
06.02.2016 03:50 -0,4 C -0,9 C 90 % 1024,2 hPa 0,0 mm 0,3 km/h (0 Bft) NW 315 -1,8 C 0,0 km/h (0 Bft)
06.02.2016 03:55 -0,5 C -1,0 C 90 % 1024,2 hPa 0,0 mm 0,5 km/h (0 Bft) S-SO 157 -1,9 C 0,0 km/h (0 Bft)
06.02.2016 04:00 -0,8 C -1,2 C 90 % 1024,2 hPa 0,0 mm 0,3 km/h (0 Bft) NO 45 -2,2 C 0,0 km/h (0 Bft)
06.02.2016 04:05 -0,8 C -1,2 C 90 % 1024,2 hPa 0,0 mm 0,0 km/h (0 Bft) O-SO 112 -2,2 C 5,7 km/h (1 Bft)
06.02.2016 04:10 -0,5 C -1,0 C 90 % 1024,2 hPa 0,0 mm 0,5 km/h (0 Bft) O-NO 67 -1,9 C 0,0 km/h (0 Bft)
06.02.2016 04:15 -0,1 C -0,7 C 90 % 1024,2 hPa 0,0 mm 0,8 km/h (0 Bft) O-NO 67 -1,5 C 8,3 km/h (2 Bft)
06.02.2016 04:20 -0,4 C -0,9 C 90 % 1024,2 hPa 0,0 mm 0,3 km/h (0 Bft) O-SO 112 -1,8 C 0,0 km/h (0 Bft)
06.02.2016 04:25 -0,4 C -0,9 C 90 % 1024,2 hPa 0,0 mm 0,0 km/h (0 Bft) O-NO 67 -1,8 C 0,0 km/h (0 Bft)
06.02.2016 04:30 -0,5 C -0,9 C 89 % 1024,2 hPa 0,0 mm 0,3 km/h (0 Bft) NW 315 -2,1 C 4,4 km/h (1 Bft)
06.02.2016 04:35 -0,4 C -0,8 C 89 % 1024,2 hPa 0,0 mm 0,8 km/h (0 Bft) O-NO 67 -2,0 C 0,0 km/h (0 Bft)
06.02.2016 04:40 -0,5 C -0,9 C 89 % 1024,2 hPa 0,0 mm 0,8 km/h (0 Bft) N-NO 22 -2,1 C 0,0 km/h (0 Bft)
06.02.2016 04:45 -0,6 C -1,0 C 89 % 1023,9 hPa 0,0 mm 0,3 km/h (0 Bft) NW 315 -2,2 C 0,0 km/h (0 Bft)
06.02.2016 04:50 -0,6 C -1,0 C 89 % 1023,9 hPa 0,0 mm 0,0 km/h (0 Bft) NO 45 -2,2 C 0,0 km/h (0 Bft)
06.02.2016 04:52 -0,6 C -1,0 C 89 % 1023,9 hPa 0,0 mm 0,0 km/h (0 Bft) NO 45 -2,2 C 0,0 km/h (0 Bft)
06.02.2016 04:55 -0,6 C -1,0 C 89 % 1023,9 hPa 0,0 mm 0,0 km/h (0 Bft) N-NO 22 -2,2 C 0,0 km/h (0 Bft)
06.02.2016 05:00 -0,8 C -1,2 C 89 % 1023,9 hPa 0,0 mm 0,0 km/h (0 Bft) O-SO 112 -2,4 C 0,0 km/h (0 Bft)
06.02.2016 05:05 -0,6 C -1,1 C 89 % 1024,0 hPa 0,0 mm 0,0 km/h (0 Bft) N-NO 22 -2,2 C 0,0 km/h (0 Bft)
06.02.2016 05:10 -0,5 C -1,0 C 89 % 1024,0 hPa 0,0 mm 0,0 km/h (0 Bft) O 90 -2,1 C 0,0 km/h (0 Bft)
06.02.2016 05:15 -0,3 C -0,8 C 89 % 1024,0 hPa 0,0 mm 0,0 km/h (0 Bft) N-NO 22 -1,9 C 0,0 km/h (0 Bft)
06.02.2016 05:20 0,0 C -0,5 C 89 % 1024,0 hPa 0,0 mm 0,0 km/h (0 Bft) O-NO 67 -1,6 C 0,0 km/h (0 Bft)
06.02.2016 05:25 0,4 C -0,2 C 83 % 1023,7 hPa 0,0 mm 0,0 km/h (0 Bft) O-NO 67 -2,1 C 0,0 km/h (0 Bft)
06.02.2016 05:30 0,6 C 0,0 C 89 % 1023,7 hPa 0,0 mm 0,3 km/h (0 Bft) N-NO 22 -1,0 C 3,9 km/h (1 Bft)
06.02.2016 05:35 0,2 C -0,3 C 89 % 1023,7 hPa 0,0 mm 0,3 km/h (0 Bft) N-NW 337 -1,4 C 0,0 km/h (0 Bft)
06.02.2016 05:40 0,0 C -0,5 C 89 % 1023,7 hPa 0,0 mm 0,5 km/h (0 Bft) W 270 -1,6 C 3,9 km/h (1 Bft)
06.02.2016 05:45 0,3 C -0,3 C 89 % 1023,7 hPa 0,0 mm 0,5 km/h (0 Bft) SW 225 -1,3 C 0,0 km/h (0 Bft)
06.02.2016 05:50 0,0 C -0,5 C 88 % 1023,7 hPa 0,0 mm 0,8 km/h (0 Bft) W-NW 292 -1,7 C 0,0 km/h (0 Bft)
06.02.2016 05:55 -0,2 C -0,7 C 88 % 1023,7 hPa 0,0 mm 0,3 km/h (0 Bft) W-SW 247 -1,9 C 0,0 km/h (0 Bft)
06.02.2016 06:00 0,2 C -0,4 C 88 % 1023,7 hPa 0,0 mm 0,3 km/h (0 Bft) SO 135 -1,5 C 0,0 km/h (0 Bft)
06.02.2016 06:05 0,6 C -0,1 C 88 % 1023,5 hPa 0,0 mm 0,3 km/h (0 Bft) O-SO 112 -1,2 C 0,0 km/h (0 Bft)
06.02.2016 06:10 -0,2 C -0,6 C 87 % 1023,5 hPa 0,0 mm 0,0 km/h (0 Bft) NO 45 -2,1 C 0,0 km/h (0 Bft)
06.02.2016 06:15 -0,2 C -0,7 C 87 % 1023,5 hPa 0,0 mm 0,0 km/h (0 Bft) O-SO 112 -2,1 C 0,0 km/h (0 Bft)
06.02.2016 06:20 -0,3 C -0,8 C 87 % 1023,5 hPa 0,0 mm 0,0 km/h (0 Bft) N-NO 22 -2,2 C 0,0 km/h (0 Bft)
06.02.2016 06:25 -0,2 C -0,7 C 87 % 1023,3 hPa 0,0 mm 0,0 km/h (0 Bft) W-SW 247 -2,1 C 0,0 km/h (0 Bft)
06.02.2016 06:30 -0,2 C -0,7 C 87 % 1023,3 hPa 0,0 mm 0,0 km/h (0 Bft) O-SO 112 -2,1 C 0,0 km/h (0 Bft)
06.02.2016 06:35 0,2 C -0,4 C 87 % 1023,3 hPa 0,0 mm 0,3 km/h (0 Bft) NO 45 -1,7 C 0,0 km/h (0 Bft)
06.02.2016 06:40 0,8 C 0,1 C 87 % 1023,3 hPa 0,0 mm 0,3 km/h (0 Bft) O-NO 67 -1,1 C 0,0 km/h (0 Bft)
06.02.2016 06:45 1,1 C 0,3 C 86 % 1023,0 hPa 0,0 mm 0,0 km/h (0 Bft) NW 315 -1,0 C 0,0 km/h (0 Bft)
06.02.2016 06:50 1,2 C 0,5 C 85 % 1023,0 hPa 0,0 mm 0,3 km/h (0 Bft) O-SO 112 -1,0 C 0,0 km/h (0 Bft)
06.02.2016 06:55 0,8 C 0,3 C 85 % 1023,0 hPa 0,0 mm 0,3 km/h (0 Bft) NO 45 -1,4 C 0,0 km/h (0 Bft)
06.02.2016 07:00 1,5 C 0,9 C 84 % 1023,0 hPa 0,0 mm 0,3 km/h (0 Bft) O-NO 67 -0,9 C 0,0 km/h (0 Bft)
06.02.2016 07:05 1,2 C 0,7 C 84 % 1023,3 hPa 0,0 mm 0,0 km/h (0 Bft) N-NW 337 -1,2 C 0,0 km/h (0 Bft)
06.02.2016 07:10 1,2 C 0,8 C 84 % 1023,3 hPa 0,0 mm 0,5 km/h (0 Bft) NO 45 -1,2 C 2,8 km/h (1 Bft)
06.02.2016 07:15 1,5 C 1,0 C 84 % 1023,3 hPa 0,0 mm 0,5 km/h (0 Bft) NO 45 -0,9 C 0,0 km/h (0 Bft)
06.02.2016 07:20 1,4 C 1,0 C 84 % 1023,3 hPa 0,0 mm 0,0 km/h (0 Bft) N-NW 337 -1,0 C 0,0 km/h (0 Bft)
06.02.2016 07:25 1,2 C 0,9 C 83 % 1023,2 hPa 0,0 mm 0,0 km/h (0 Bft) O-NO 67 -1,4 C 0,0 km/h (0 Bft)
06.02.2016 07:30 1,4 C 1,1 C 83 % 1023,2 hPa 0,0 mm 0,0 km/h (0 Bft) SO 135 -1,2 C 0,0 km/h (0 Bft)
06.02.2016 07:35 1,4 C 1,1 C 83 % 1023,2 hPa 0,0 mm 0,3 km/h (0 Bft) SO 135 -1,2 C 0,0 km/h (0 Bft)
06.02.2016 07:40 1,1 C 0,9 C 83 % 1023,2 hPa 0,0 mm 0,5 km/h (0 Bft) SO 135 -1,5 C 5,7 km/h (1 Bft)
06.02.2016 07:45 1,7 C 1,4 C 83 % 1023,1 hPa 0,0 mm 0,5 km/h (0 Bft) W-NW 292 -0,9 C 0,0 km/h (0 Bft)
06.02.2016 07:50 1,5 C 1,3 C 82 % 1023,1 hPa 0,0 mm 0,5 km/h (0 Bft) O-NO 67 -1,2 C 0,0 km/h (0 Bft)
06.02.2016 07:55 2,0 C 1,7 C 82 % 1023,1 hPa 0,0 mm 0,0 km/h (0 Bft) O-NO 67 -0,7 C 0,0 km/h (0 Bft)
06.02.2016 08:00 2,0 C 1,8 C 81 % 1023,1 hPa 0,0 mm 0,8 km/h (0 Bft) O-SO 112 -0,9 C 0,0 km/h (0 Bft)
06.02.2016 08:05 2,1 C 1,9 C 80 % 1023,0 hPa 0,0 mm 1,3 km/h (1 Bft) N 360 -1,0 C 0,0 km/h (0 Bft)
06.02.2016 08:10 1,9 C 1,8 C 80 % 1023,0 hPa 0,0 mm 0,5 km/h (0 Bft) N-NW 337 -1,2 C 0,0 km/h (0 Bft)
06.02.2016 08:15 1,9 C 1,8 C 79 % 1023,0 hPa 0,0 mm 0,0 km/h (0 Bft) W-SW 247 -1,3 C 0,0 km/h (0 Bft)
06.02.2016 08:20 1,7 C 1,8 C 79 % 1023,0 hPa 0,0 mm 1,6 km/h (1 Bft) NW 315 -1,5 C 3,6 km/h (1 Bft)
06.02.2016 08:25 1,7 C 1,9 C 79 % 1023,2 hPa 0,0 mm 1,8 km/h (1 Bft) NW 315 -1,5 C 3,1 km/h (1 Bft)
06.02.2016 08:30 2,0 C 2,1 C 79 % 1023,2 hPa 0,0 mm 1,8 km/h (1 Bft) W-SW 247 -1,2 C 3,1 km/h (1 Bft)
06.02.2016 08:35 2,2 C 2,2 C 79 % 1023,2 hPa 0,0 mm 1,8 km/h (1 Bft) W 270 -1,1 C 0,0 km/h (0 Bft)
06.02.2016 08:40 2,0 C 2,4 C 78 % 1023,2 hPa 0,0 mm 0,5 km/h (0 Bft) W-SW 247 -1,4 C 4,4 km/h (1 Bft)
06.02.2016 08:45 2,1 C 2,5 C 78 % 1023,2 hPa 0,0 mm 1,3 km/h (1 Bft) W-SW 247 -1,3 C 5,4 km/h (1 Bft)
06.02.2016 08:50 2,5 C 2,7 C 78 % 1023,2 hPa 0,0 mm 1,8 km/h (1 Bft) N-NO 22 -0,9 C 0,0 km/h (0 Bft)
06.02.2016 08:55 2,4 C 2,9 C 78 % 1023,2 hPa 0,0 mm 1,0 km/h (0 Bft) O-NO 67 -1,0 C 0,0 km/h (0 Bft)
06.02.2016 09:00 2,5 C 3,1 C 77 % 1023,2 hPa 0,0 mm 0,5 km/h (0 Bft) NW 315 -1,1 C 0,0 km/h (0 Bft)
06.02.2016 09:05 2,6 C 3,4 C 77 % 1023,0 hPa 0,0 mm 0,3 km/h (0 Bft) N-NO 22 -1,0 C 0,0 km/h (0 Bft)
06.02.2016 09:10 2,6 C 3,5 C 77 % 1023,0 hPa 0,0 mm 0,0 km/h (0 Bft) NW 315 -1,0 C 0,0 km/h (0 Bft)
06.02.2016 09:15 2,8 C 3,7 C 77 % 1023,0 hPa 0,0 mm 0,0 km/h (0 Bft) W-NW 292 -0,8 C 0,0 km/h (0 Bft)
06.02.2016 09:20 3,0 C 4,2 C 76 % 1023,0 hPa 0,0 mm 0,0 km/h (0 Bft) W-SW 247 -0,8 C 0,0 km/h (0 Bft)
06.02.2016 09:25 3,2 C 4,4 C 76 % 1022,9 hPa 0,0 mm 0,0 km/h (0 Bft) N-NW 337 -0,6 C 0,0 km/h (0 Bft)
06.02.2016 09:30 3,3 C 4,7 C 76 % 1022,9 hPa 0,0 mm 0,0 km/h (0 Bft) N 360 -0,5 C 0,0 km/h (0 Bft)
06.02.2016 09:35 3,5 C 4,9 C 75 % 1022,9 hPa 0,0 mm 0,0 km/h (0 Bft) O-SO 112 -0,5 C 0,0 km/h (0 Bft)
06.02.2016 09:40 3,8 C 5,2 C 74 % 1022,9 hPa 0,0 mm 0,0 km/h (0 Bft) NW 315 -0,4 C 0,0 km/h (0 Bft)
06.02.2016 09:45 3,9 C 5,3 C 74 % 1023,0 hPa 0,0 mm 0,0 km/h (0 Bft) N 360 -0,3 C 0,0 km/h (0 Bft)
06.02.2016 09:50 4,0 C 5,5 C 73 % 1023,0 hPa 0,0 mm 0,3 km/h (0 Bft) SW 225 -0,4 C 3,6 km/h (1 Bft)
06.02.2016 09:55 4,3 C 5,7 C 72 % 1023,0 hPa 0,0 mm 0,3 km/h (0 Bft) N 360 -0,3 C 0,0 km/h (0 Bft)
06.02.2016 10:00 4,4 C 6,0 C 71 % 1023,0 hPa 0,0 mm 0,0 km/h (0 Bft) N-NW 337 -0,4 C 0,0 km/h (0 Bft)
06.02.2016 10:05 4,7 C 6,1 C 71 % 1023,1 hPa 0,0 mm 0,0 km/h (0 Bft) W 270 -0,1 C 0,0 km/h (0 Bft)
06.02.2016 10:10 5,2 C 6,5 C 69 % 1023,1 hPa 0,0 mm 1,8 km/h (1 Bft) NW 315 -0,0 C 8,3 km/h (2 Bft)
06.02.2016 10:15 5,7 C 6,9 C 69 % 1023,1 hPa 0,0 mm 3,4 km/h (1 Bft) W-SW 247 0,5 C 4,9 km/h (1 Bft)
06.02.2016 10:20 6,6 C 7,3 C 66 % 1023,1 hPa 0,0 mm 7,5 km/h (2 Bft) W-SW 247 0,7 C 15,3 km/h (3 Bft)
06.02.2016 10:25 6,5 C 7,7 C 65 % 1023,0 hPa 0,0 mm 7,3 km/h (2 Bft) SO 135 0,4 C 23,0 km/h (4 Bft)
06.02.2016 10:30 6,3 C 8,0 C 65 % 1023,0 hPa 0,0 mm 3,1 km/h (1 Bft) NO 45 0,2 C 7,5 km/h (2 Bft)
06.02.2016 10:35 6,7 C 8,3 C 64 % 1023,0 hPa 0,0 mm 1,6 km/h (1 Bft) O-NO 67 0,4 C 4,7 km/h (1 Bft)
06.02.2016 10:40 6,8 C 8,8 C 63 % 1023,0 hPa 0,0 mm 2,3 km/h (1 Bft) SW 225 0,3 C 4,1 km/h (1 Bft)
06.02.2016 10:45 6,8 C 9,2 C 63 % 1023,4 hPa 0,0 mm 1,0 km/h (0 Bft) W-SW 247 0,3 C 0,0 km/h (0 Bft)
06.02.2016 10:50 6,7 C 9,4 C 63 % 1023,4 hPa 0,0 mm 0,5 km/h (0 Bft) W-NW 292 0,2 C 0,0 km/h (0 Bft)
06.02.2016 10:53 6,7 C 9,4 C 63 % 1023,4 hPa 0,0 mm 0,5 km/h (0 Bft) W-NW 292 0,2 C 0,0 km/h (0 Bft)
06.02.2016 10:55 6,9 C 9,6 C 63 % 1023,4 hPa 0,0 mm 0,0 km/h (0 Bft) W-NW 292 0,4 C 0,0 km/h (0 Bft)
06.02.2016 11:00 7,7 C 10,0 C 62 % 1023,4 hPa 0,0 mm 0,0 km/h (0 Bft) O-SO 112 0,9 C 0,0 km/h (0 Bft)
06.02.2016 11:05 7,7 C 10,5 C 62 % 1023,3 hPa 0,0 mm 0,5 km/h (0 Bft) W-NW 292 0,9 C 3,1 km/h (1 Bft)
06.02.2016 11:10 7,8 C 11,5 C 62 % 1023,3 hPa 0,0 mm 0,8 km/h (0 Bft) O-NO 67 1,0 C 0,0 km/h (0 Bft)
06.02.2016 11:15 8,1 C 12,5 C 61 % 1023,3 hPa 0,0 mm 0,5 km/h (0 Bft) O-NO 67 1,0 C 0,0 km/h (0 Bft)
06.02.2016 11:20 8,0 C 12,5 C 61 % 1023,3 hPa 0,0 mm 0,0 km/h (0 Bft) NW 315 0,9 C 0,0 km/h (0 Bft)
06.02.2016 11:25 7,9 C 12,7 C 61 % 1023,4 hPa 0,0 mm 0,3 km/h (0 Bft) W-SW 247 0,9 C 0,0 km/h (0 Bft)
06.02.2016 11:30 8,1 C 13,7 C 61 % 1023,4 hPa 0,0 mm 0,5 km/h (0 Bft) W 270 1,0 C 0,0 km/h (0 Bft)
06.02.2016 11:35 8,1 C 13,6 C 60 % 1023,4 hPa 0,0 mm 0,3 km/h (0 Bft) NW 315 0,8 C 0,0 km/h (0 Bft)
06.02.2016 11:40 8,6 C 13,5 C 60 % 1023,4 hPa 0,0 mm 0,0 km/h (0 Bft) W-SW 247 1,3 C 0,0 km/h (0 Bft)
06.02.2016 11:45 8,7 C 14,2 C 60 % 1023,2 hPa 0,0 mm 0,0 km/h (0 Bft) W-NW 292 1,4 C 0,0 km/h (0 Bft)
06.02.2016 11:50 8,6 C 13,7 C 60 % 1023,2 hPa 0,0 mm 0,5 km/h (0 Bft) N-NO 22 1,3 C 0,0 km/h (0 Bft)
06.02.2016 11:55 9,0 C 13,6 C 60 % 1023,2 hPa 0,0 mm 0,5 km/h (0 Bft) S-SW 202 1,7 C 0,0 km/h (0 Bft)
06.02.2016 12:00 9,1 C 13,4 C 59 % 1023,2 hPa 0,0 mm 0,0 km/h (0 Bft) S-SW 202 1,5 C 0,0 km/h (0 Bft)
06.02.2016 12:05 9,2 C 13,0 C 59 % 1022,9 hPa 0,0 mm 0,0 km/h (0 Bft) S-SW 202 1,6 C 0,0 km/h (0 Bft)
06.02.2016 12:10 9,2 C 12,7 C 59 % 1022,9 hPa 0,0 mm 0,0 km/h (0 Bft) SW 225 1,6 C 0,0 km/h (0 Bft)
06.02.2016 12:15 9,2 C 13,2 C 59 % 1022,9 hPa 0,0 mm 0,0 km/h (0 Bft) SW 225 1,6 C 0,0 km/h (0 Bft)
06.02.2016 12:20 9,3 C 13,6 C 58 % 1022,9 hPa 0,0 mm 0,0 km/h (0 Bft) W-SW 247 1,5 C 0,0 km/h (0 Bft)
06.02.2016 12:25 9,4 C 13,3 C 58 % 1022,6 hPa 0,0 mm 0,0 km/h (0 Bft) W-SW 247 1,6 C 0,0 km/h (0 Bft)
06.02.2016 12:30 9,3 C 13,0 C 58 % 1022,6 hPa 0,0 mm 0,0 km/h (0 Bft) NW 315 1,5 C 0,0 km/h (0 Bft)
06.02.2016 12:35 9,5 C 13,2 C 57 % 1022,6 hPa 0,0 mm 0,0 km/h (0 Bft) NW 315 1,4 C 0,0 km/h (0 Bft)
06.02.2016 12:40 9,8 C 13,2 C 57 % 1022,6 hPa 0,0 mm 0,0 km/h (0 Bft) NW 315 1,7 C 0,0 km/h (0 Bft)
06.02.2016 12:45 10,2 C 13,3 C 57 % 1022,2 hPa 0,0 mm 0,0 km/h (0 Bft) W-SW 247 2,1 C 0,0 km/h (0 Bft)
06.02.2016 12:50 10,5 C 13,5 C 56 % 1022,2 hPa 0,0 mm 0,0 km/h (0 Bft) NW 315 2,1 C 0,0 km/h (0 Bft)
06.02.2016 12:55 10,7 C 13,8 C 56 % 1022,2 hPa 0,0 mm 0,0 km/h (0 Bft) NW 315 2,3 C 0,0 km/h (0 Bft)
06.02.2016 13:00 10,9 C 14,3 C 56 % 1022,2 hPa 0,0 mm 0,0 km/h (0 Bft) O-NO 67 2,5 C 0,0 km/h (0 Bft)
06.02.2016 13:05 11,1 C 14,8 C 56 % 1021,7 hPa 0,0 mm 0,3 km/h (0 Bft) NW 315 2,7 C 0,0 km/h (0 Bft)
06.02.2016 13:10 11,3 C 15,3 C 55 % 1021,7 hPa 0,0 mm 1,3 km/h (1 Bft) O-NO 67 2,6 C 2,8 km/h (1 Bft)
06.02.2016 13:15 11,4 C 15,6 C 54 % 1021,7 hPa 0,0 mm 2,6 km/h (1 Bft) O 90 2,4 C 3,9 km/h (1 Bft)
06.02.2016 13:20 11,1 C 15,7 C 54 % 1021,7 hPa 0,0 mm 3,1 km/h (1 Bft) O-NO 67 2,2 C 0,0 km/h (0 Bft)
06.02.2016 13:25 11,3 C 15,3 C 53 % 1021,3 hPa 0,0 mm 3,4 km/h (1 Bft) O 90 2,1 C 3,6 km/h (1 Bft)
06.02.2016 13:30 11,2 C 15,1 C 53 % 1021,3 hPa 0,0 mm 2,6 km/h (1 Bft) O-SO 112 2,0 C 8,8 km/h (2 Bft)
06.02.2016 13:35 11,2 C 15,1 C 53 % 1021,3 hPa 0,0 mm 2,6 km/h (1 Bft) O-SO 112 2,0 C 3,6 km/h (1 Bft)
06.02.2016 13:40 11,0 C 15,1 C 53 % 1021,3 hPa 0,0 mm 2,8 km/h (1 Bft) O-SO 112 1,8 C 0,0 km/h (0 Bft)
06.02.2016 13:45 10,9 C 15,7 C 53 % 1021,0 hPa 0,0 mm 2,1 km/h (1 Bft) O 90 1,7 C 0,0 km/h (0 Bft)
06.02.2016 13:50 11,5 C 16,5 C 52 % 1021,0 hPa 0,0 mm 2,6 km/h (1 Bft) O-NO 67 2,0 C 7,8 km/h (2 Bft)
06.02.2016 13:55 11,5 C 16,3 C 52 % 1021,0 hPa 0,0 mm 2,6 km/h (1 Bft) O-SO 112 2,0 C 0,0 km/h (0 Bft)
06.02.2016 14:00 11,7 C 16,1 C 53 % 1021,0 hPa 0,0 mm 2,3 km/h (1 Bft) O-SO 112 2,4 C 0,0 km/h (0 Bft)
06.02.2016 14:05 11,9 C 16,0 C 53 % 1020,6 hPa 0,0 mm 1,8 km/h (1 Bft) O-SO 112 2,6 C 0,0 km/h (0 Bft)
06.02.2016 14:10 12,2 C 16,3 C 53 % 1020,6 hPa 0,0 mm 1,6 km/h (1 Bft) O-NO 67 2,9 C 4,1 km/h (1 Bft)
06.02.2016 14:15 12,2 C 16,1 C 53 % 1020,6 hPa 0,0 mm 2,1 km/h (1 Bft) O 90 2,9 C 0,0 km/h (0 Bft)
06.02.2016 14:20 12,2 C 16,3 C 53 % 1020,6 hPa 0,0 mm 2,1 km/h (1 Bft) O-SO 112 2,9 C 0,0 km/h (0 Bft)
06.02.2016 14:25 12,4 C 16,5 C 53 % 1020,4 hPa 0,0 mm 0,8 km/h (0 Bft) NO 45 3,1 C 3,6 km/h (1 Bft)
06.02.2016 14:30 12,1 C 16,5 C 53 % 1020,4 hPa 0,0 mm 1,3 km/h (1 Bft) O-SO 112 2,8 C 3,9 km/h (1 Bft)
06.02.2016 14:35 12,2 C 16,1 C 53 % 1020,4 hPa 0,0 mm 1,3 km/h (1 Bft) O-SO 112 2,9 C 0,0 km/h (0 Bft)
06.02.2016 14:40 12,3 C 16,6 C 53 % 1020,4 hPa 0,0 mm 1,3 km/h (1 Bft) N-NW 337 3,0 C 3,6 km/h (1 Bft)
06.02.2016 14:45 12,2 C 16,5 C 52 % 1020,1 hPa 0,0 mm 2,6 km/h (1 Bft) O-SO 112 2,6 C 3,4 km/h (1 Bft)
06.02.2016 14:50 12,0 C 16,7 C 53 % 1020,1 hPa 0,0 mm 2,8 km/h (1 Bft) O-NO 67 2,7 C 0,0 km/h (0 Bft)
06.02.2016 14:55 12,3 C 16,9 C 53 % 1020,1 hPa 0,0 mm 1,6 km/h (1 Bft) O-SO 112 3,0 C 0,0 km/h (0 Bft)
06.02.2016 15:00 12,1 C 16,9 C 53 % 1020,1 hPa 0,0 mm 0,8 km/h (0 Bft) O-NO 67 2,8 C 3,9 km/h (1 Bft)
06.02.2016 15:05 12,1 C 16,6 C 53 % 1019,7 hPa 0,0 mm 1,0 km/h (0 Bft) NW 315 2,8 C 0,0 km/h (0 Bft)
06.02.2016 15:10 12,1 C 16,0 C 53 % 1019,7 hPa 0,0 mm 1,3 km/h (1 Bft) O-NO 67 2,8 C 3,9 km/h (1 Bft)
06.02.2016 15:15 11,8 C 15,5 C 53 % 1019,7 hPa 0,0 mm 0,5 km/h (0 Bft) SO 135 2,5 C 2,8 km/h (1 Bft)
06.02.2016 15:20 11,9 C 15,3 C 51 % 1019,7 hPa 0,0 mm 0,8 km/h (0 Bft) O-NO 67 2,1 C 0,0 km/h (0 Bft)
06.02.2016 15:25 11,9 C 15,0 C 51 % 1019,5 hPa 0,0 mm 0,3 km/h (0 Bft) O-SO 112 2,1 C 0,0 km/h (0 Bft)
06.02.2016 15:30 11,9 C 14,4 C 49 % 1019,5 hPa 0,0 mm 0,3 km/h (0 Bft) O 90 1,5 C 3,6 km/h (1 Bft)
06.02.2016 15:35 11,6 C 14,1 C 49 % 1019,5 hPa 0,0 mm 0,5 km/h (0 Bft) SO 135 1,3 C 0,0 km/h (0 Bft)
06.02.2016 15:40 11,4 C 14,1 C 51 % 1019,5 hPa 0,0 mm 0,3 km/h (0 Bft) O-SO 112 1,6 C 0,0 km/h (0 Bft)
06.02.2016 15:45 11,5 C 14,0 C 51 % 1019,4 hPa 0,0 mm 0,0 km/h (0 Bft) S-SO 157 1,7 C 0,0 km/h (0 Bft)
06.02.2016 15:50 11,2 C 13,7 C 52 % 1019,4 hPa 0,0 mm 0,0 km/h (0 Bft) SW 225 1,7 C 0,0 km/h (0 Bft)
06.02.2016 15:55 11,5 C 13,3 C 52 % 1019,4 hPa 0,0 mm 0,0 km/h (0 Bft) SW 225 2,0 C 0,0 km/h (0 Bft)
06.02.2016 16:00 11,0 C 12,8 C 52 % 1019,4 hPa 0,0 mm 0,8 km/h (0 Bft) SW 225 1,5 C 3,6 km/h (1 Bft)
06.02.2016 16:05 11,1 C 12,3 C 51 % 1019,0 hPa 0,0 mm 2,1 km/h (1 Bft) W-SW 247 1,4 C 5,7 km/h (1 Bft)
06.02.2016 16:10 10,7 C 11,8 C 53 % 1019,0 hPa 0,0 mm 1,6 km/h (1 Bft) SO 135 1,5 C 0,0 km/h (0 Bft)
06.02.2016 16:15 10,8 C 11,4 C 53 % 1019,0 hPa 0,0 mm 0,3 km/h (0 Bft) SO 135 1,6 C 0,0 km/h (0 Bft)
06.02.2016 16:20 10,5 C 11,0 C 54 % 1019,0 hPa 0,0 mm 1,8 km/h (1 Bft) S 180 1,6 C 4,4 km/h (1 Bft)
06.02.2016 16:25 10,2 C 10,8 C 54 % 1018,9 hPa 0,0 mm 4,1 km/h (1 Bft) S-SW 202 1,3 C 8,3 km/h (2 Bft)
06.02.2016 16:30 9,9 C 10,6 C 54 % 1018,9 hPa 0,0 mm 5,7 km/h (1 Bft) W-SW 247 1,0 C 7,0 km/h (2 Bft)
06.02.2016 16:35 10,0 C 10,5 C 55 % 1018,9 hPa 0,0 mm 6,0 km/h (2 Bft) W-SW 247 1,4 C 6,5 km/h (2 Bft)
06.02.2016 16:40 9,8 C 10,2 C 55 % 1018,9 hPa 0,0 mm 4,4 km/h (1 Bft) S 180 1,2 C 3,6 km/h (1 Bft)
06.02.2016 16:45 9,7 C 10,0 C 55 % 1018,6 hPa 0,0 mm 3,4 km/h (1 Bft) S 180 1,1 C 3,9 km/h (1 Bft)
06.02.2016 16:50 9,4 C 9,6 C 56 % 1018,6 hPa 0,0 mm 2,6 km/h (1 Bft) W-SW 247 1,1 C 0,0 km/h (0 Bft)
06.02.2016 16:54 9,3 C 9,3 C 56 % 1018,6 hPa 0,0 mm 1,6 km/h (1 Bft) S 180 1,0 C 0,0 km/h (0 Bft)
06.02.2016 16:55 9,3 C 9,3 C 56 % 1018,6 hPa 0,0 mm 1,6 km/h (1 Bft) S 180 1,0 C 0,0 km/h (0 Bft)
06.02.2016 17:00 9,1 C 9,0 C 57 % 1018,6 hPa 0,0 mm 0,3 km/h (0 Bft) S-SW 202 1,0 C 0,0 km/h (0 Bft)
06.02.2016 17:05 8,9 C 8,8 C 57 % 1018,3 hPa 0,0 mm 0,0 km/h (0 Bft) S-SO 157 0,9 C 0,0 km/h (0 Bft)
06.02.2016 17:10 8,2 C 8,2 C 58 % 1018,3 hPa 0,0 mm 1,0 km/h (0 Bft) S 180 0,4 C 2,6 km/h (1 Bft)
06.02.2016 17:15 8,1 C 8,0 C 59 % 1018,3 hPa 0,0 mm 1,0 km/h (0 Bft) S 180 0,6 C 0,0 km/h (0 Bft)
06.02.2016 17:20 7,8 C 7,7 C 60 % 1018,3 hPa 0,0 mm 0,5 km/h (0 Bft) S-SO 157 0,5 C 3,1 km/h (1 Bft)
06.02.2016 17:25 7,7 C 7,5 C 60 % 1017,9 hPa 0,0 mm 1,8 km/h (1 Bft) S-SO 157 0,4 C 4,7 km/h (1 Bft)
06.02.2016 17:30 7,2 C 7,1 C 61 % 1017,9 hPa 0,0 mm 3,6 km/h (1 Bft) S-SO 157 0,2 C 5,7 km/h (1 Bft)
06.02.2016 17:35 7,1 C 7,0 C 61 % 1017,9 hPa 0,0 mm 4,1 km/h (1 Bft) SW 225 0,1 C 9,8 km/h (2 Bft)
06.02.2016 17:40 6,5 C 6,6 C 62 % 1017,9 hPa 0,0 mm 5,2 km/h (1 Bft) S 180 -0,2 C 6,2 km/h (2 Bft)
06.02.2016 17:45 6,4 C 6,4 C 63 % 1017,4 hPa 0,0 mm 5,2 km/h (1 Bft) SO 135 -0,1 C 3,6 km/h (1 Bft)
06.02.2016 17:50 6,2 C 6,1 C 63 % 1017,4 hPa 0,0 mm 2,1 km/h (1 Bft) SO 135 -0,3 C 0,0 km/h (0 Bft)
06.02.2016 17:55 5,7 C 5,6 C 65 % 1017,4 hPa 0,0 mm 1,6 km/h (1 Bft) W-SW 247 -0,4 C 6,5 km/h (2 Bft)
06.02.2016 18:00 5,2 C 5,2 C 66 % 1017,4 hPa 0,0 mm 1,6 km/h (1 Bft) SW 225 -0,6 C 3,9 km/h (1 Bft)
06.02.2016 18:05 5,1 C 5,0 C 67 % 1017,6 hPa 0,0 mm 1,3 km/h (1 Bft) SO 135 -0,5 C 0,0 km/h (0 Bft)
06.02.2016 18:10 5,2 C 5,1 C 67 % 1017,6 hPa 0,0 mm 1,0 km/h (0 Bft) O-NO 67 -0,4 C 0,0 km/h (0 Bft)
06.02.2016 18:15 4,7 C 4,6 C 67 % 1017,6 hPa 0,0 mm 0,3 km/h (0 Bft) O-NO 67 -0,9 C 0,0 km/h (0 Bft)
06.02.2016 18:20 3,8 C 3,7 C 67 % 1017,6 hPa 0,0 mm 0,3 km/h (0 Bft) O 90 -1,8 C 0,0 km/h (0 Bft)
06.02.2016 18:25 4,0 C 3,6 C 67 % 1017,2 hPa 0,0 mm 0,0 km/h (0 Bft) SO 135 -1,6 C 0,0 km/h (0 Bft)
06.02.2016 18:30 4,7 C 4,1 C 67 % 1017,2 hPa 0,0 mm 0,0 km/h (0 Bft) O-SO 112 -0,9 C 0,0 km/h (0 Bft)
06.02.2016 18:35 4,1 C 3,6 C 66 % 1017,2 hPa 0,0 mm 0,0 km/h (0 Bft) O-SO 112 -1,7 C 0,0 km/h (0 Bft)
06.02.2016 18:40 4,5 C 3,9 C 66 % 1017,2 hPa 0,0 mm 0,0 km/h (0 Bft) SO 135 -1,3 C 0,0 km/h (0 Bft)
06.02.2016 18:45 4,8 C 4,5 C 64 % 1016,8 hPa 0,0 mm 0,0 km/h (0 Bft) O-SO 112 -1,4 C 0,0 km/h (0 Bft)
06.02.2016 18:50 4,0 C 3,7 C 63 % 1016,8 hPa 0,0 mm 0,0 km/h (0 Bft) SO 135 -2,4 C 0,0 km/h (0 Bft)
06.02.2016 18:55 3,4 C 3,3 C 64 % 1016,8 hPa 0,0 mm 0,0 km/h (0 Bft) S 180 -2,7 C 0,0 km/h (0 Bft)
06.02.2016 19:00 3,4 C 3,5 C 65 % 1016,8 hPa 0,0 mm 0,3 km/h (0 Bft) W 270 -2,5 C 3,1 km/h (1 Bft)
06.02.2016 19:05 3,2 C 3,4 C 66 % 1016,5 hPa 0,0 mm 0,5 km/h (0 Bft) S 180 -2,5 C 3,4 km/h (1 Bft)
06.02.2016 19:10 3,9 C 3,9 C 65 % 1016,5 hPa 0,0 mm 1,0 km/h (0 Bft) W-SW 247 -2,1 C 4,9 km/h (1 Bft)
06.02.2016 19:15 5,7 C 5,5 C 61 % 1016,5 hPa 0,0 mm 2,1 km/h (1 Bft) SO 135 -1,2 C 0,0 km/h (0 Bft)
06.02.2016 19:20 6,4 C 6,3 C 56 % 1016,5 hPa 0,0 mm 1,6 km/h (1 Bft) O 90 -1,7 C 0,0 km/h (0 Bft)
06.02.2016 19:25 6,8 C 6,4 C 55 % 1016,2 hPa 0,0 mm 0,3 km/h (0 Bft) S 180 -1,6 C 0,0 km/h (0 Bft)
06.02.2016 19:30 6,1 C 6,0 C 55 % 1016,2 hPa 0,0 mm 0,5 km/h (0 Bft) S 180 -2,2 C 2,6 km/h (1 Bft)
06.02.2016 19:35 4,4 C 5,5 C 57 % 1016,2 hPa 0,0 mm 1,6 km/h (1 Bft) NW 315 -3,4 C 3,6 km/h (1 Bft)
06.02.2016 19:40 4,3 C 4,3 C 59 % 1016,2 hPa 0,0 mm 2,3 km/h (1 Bft) SO 135 -3,0 C 3,4 km/h (1 Bft)
06.02.2016 19:45 4,9 C 4,6 C 58 % 1016,1 hPa 0,0 mm 1,6 km/h (1 Bft) W 270 -2,7 C 3,6 km/h (1 Bft)
06.02.2016 19:50 3,4 C 3,5 C 59 % 1016,1 hPa 0,0 mm 1,8 km/h (1 Bft) SO 135 -3,8 C 0,0 km/h (0 Bft)
06.02.2016 19:55 3,6 C 3,4 C 60 % 1016,1 hPa 0,0 mm 1,6 km/h (1 Bft) S-SW 202 -3,4 C 0,0 km/h (0 Bft)
06.02.2016 20:00 4,2 C 3,9 C 60 % 1016,1 hPa 0,0 mm 0,3 km/h (0 Bft) W 270 -2,9 C 0,0 km/h (0 Bft)
06.02.2016 20:05 4,5 C 4,6 C 60 % 1015,8 hPa 0,0 mm 0,8 km/h (0 Bft) S 180 -2,6 C 5,4 km/h (1 Bft)
06.02.2016 20:10 6,2 C 6,4 C 58 % 1015,8 hPa 0,0 mm 2,3 km/h (1 Bft) W-SW 247 -1,4 C 7,0 km/h (2 Bft)
06.02.2016 20:15 6,9 C 6,8 C 56 % 1015,8 hPa 0,0 mm 4,4 km/h (1 Bft) W-SW 247 -1,3 C 10,6 km/h (2 Bft)
06.02.2016 20:20 7,9 C 7,8 C 50 % 1015,8 hPa 0,0 mm 4,7 km/h (1 Bft) SO 135 -1,9 C 0,0 km/h (0 Bft)
06.02.2016 20:25 8,1 C 7,9 C 48 % 1015,6 hPa 0,0 mm 4,4 km/h (1 Bft) SO 135 -2,2 C 4,1 km/h (1 Bft)
06.02.2016 20:30 8,4 C 8,2 C 47 % 1015,6 hPa 0,0 mm 3,4 km/h (1 Bft) SW 225 -2,2 C 4,1 km/h (1 Bft)
06.02.2016 20:35 8,0 C 8,0 C 46 % 1015,6 hPa 0,0 mm 3,1 km/h (1 Bft) O-NO 67 -2,9 C 2,6 km/h (1 Bft)
06.02.2016 20:40 8,3 C 8,2 C 44 % 1015,6 hPa 0,0 mm 3,1 km/h (1 Bft) SW 225 -3,2 C 4,7 km/h (1 Bft)
06.02.2016 20:45 8,6 C 8,6 C 44 % 1015,4 hPa 0,0 mm 3,1 km/h (1 Bft) SO 135 -2,9 C 3,1 km/h (1 Bft)
06.02.2016 20:50 9,0 C 9,0 C 42 % 1015,4 hPa 0,0 mm 2,1 km/h (1 Bft) S 180 -3,2 C 7,0 km/h (2 Bft)
06.02.2016 20:55 8,6 C 8,9 C 41 % 1015,4 hPa 0,0 mm 2,8 km/h (1 Bft) S 180 -3,9 C 4,1 km/h (1 Bft)
06.02.2016 21:00 8,7 C 9,0 C 40 % 1015,4 hPa 0,0 mm 4,1 km/h (1 Bft) S-SO 157 -4,1 C 4,7 km/h (1 Bft)
06.02.2016 21:05 8,4 C 9,0 C 40 % 1015,0 hPa 0,0 mm 4,1 km/h (1 Bft) S-SO 157 -4,4 C 4,9 km/h (1 Bft)
06.02.2016 21:10 8,8 C 8,9 C 40 % 1015,0 hPa 0,0 mm 3,9 km/h (1 Bft) SO 135 -4,0 C 0,0 km/h (0 Bft)
06.02.2016 21:15 8,6 C 8,6 C 41 % 1015,0 hPa 0,0 mm 2,6 km/h (1 Bft) O-NO 67 -3,9 C 0,0 km/h (0 Bft)
06.02.2016 21:20 7,6 C 8,1 C 43 % 1015,0 hPa 0,0 mm 2,1 km/h (1 Bft) SW 225 -4,2 C 4,9 km/h (1 Bft)
06.02.2016 21:25 8,4 C 8,3 C 43 % 1015,0 hPa 0,0 mm 2,3 km/h (1 Bft) O-SO 112 -3,4 C 3,1 km/h (1 Bft)
06.02.2016 21:30 8,6 C 8,4 C 43 % 1015,0 hPa 0,0 mm 2,3 km/h (1 Bft) O 90 -3,3 C 0,0 km/h (0 Bft)
06.02.2016 21:35 8,6 C 8,3 C 42 % 1015,0 hPa 0,0 mm 1,8 km/h (1 Bft) S 180 -3,6 C 3,1 km/h (1 Bft)
06.02.2016 21:40 8,4 C 8,2 C 42 % 1015,0 hPa 0,0 mm 1,8 km/h (1 Bft) O-SO 112 -3,8 C 0,0 km/h (0 Bft)
06.02.2016 21:45 8,3 C 8,1 C 43 % 1014,5 hPa 0,0 mm 1,8 km/h (1 Bft) SO 135 -3,5 C 2,8 km/h (1 Bft)
06.02.2016 21:50 8,7 C 8,3 C 42 % 1014,5 hPa 0,0 mm 1,3 km/h (1 Bft) S-SO 157 -3,5 C 0,0 km/h (0 Bft)
06.02.2016 21:55 9,6 C 9,1 C 40 % 1014,5 hPa 0,0 mm 2,3 km/h (1 Bft) S-SO 157 -3,3 C 6,0 km/h (2 Bft)
06.02.2016 22:00 9,2 C 9,1 C 40 % 1014,5 hPa 0,0 mm 3,1 km/h (1 Bft) SO 135 -3,7 C 6,2 km/h (2 Bft)
06.02.2016 22:05 8,2 C 8,4 C 40 % 1014,0 hPa 0,0 mm 2,8 km/h (1 Bft) W-NW 292 -4,6 C 3,9 km/h (1 Bft)
06.02.2016 22:10 7,8 C 7,7 C 42 % 1014,0 hPa 0,0 mm 3,4 km/h (1 Bft) O-SO 112 -4,3 C 4,7 km/h (1 Bft)
06.02.2016 22:15 8,2 C 8,2 C 42 % 1014,0 hPa 0,0 mm 3,6 km/h (1 Bft) SO 135 -3,9 C 3,6 km/h (1 Bft)
06.02.2016 22:20 6,3 C 7,0 C 43 % 1014,0 hPa 0,0 mm 3,9 km/h (1 Bft) W-SW 247 -5,3 C 8,8 km/h (2 Bft)
06.02.2016 22:25 7,0 C 7,0 C 44 % 1013,8 hPa 0,0 mm 3,9 km/h (1 Bft) W-SW 247 -4,4 C 0,0 km/h (0 Bft)
06.02.2016 22:30 6,5 C 6,8 C 45 % 1013,8 hPa 0,0 mm 4,4 km/h (1 Bft) O-SO 112 -4,6 C 4,7 km/h (1 Bft)
06.02.2016 22:35 7,3 C 7,3 C 45 % 1013,8 hPa 0,0 mm 3,9 km/h (1 Bft) N-NW 337 -3,8 C 5,2 km/h (1 Bft)
06.02.2016 22:40 7,9 C 7,9 C 44 % 1013,8 hPa 0,0 mm 4,7 km/h (1 Bft) O-SO 112 -3,6 C 6,2 km/h (2 Bft)
06.02.2016 22:45 8,2 C 8,2 C 42 % 1013,5 hPa 0,0 mm 6,5 km/h (2 Bft) N-NO 22 -3,9 C 6,0 km/h (2 Bft)
06.02.2016 22:50 8,9 C 8,8 C 41 % 1013,5 hPa 0,0 mm 9,3 km/h (2 Bft) W-SW 247 -3,6 C 14,0 km/h (3 Bft)
06.02.2016 22:54 8,0 C 8,9 C 41 % 1013,5 hPa 0,0 mm 8,0 km/h (2 Bft) N 360 -4,4 C 5,2 km/h (1 Bft)
06.02.2016 22:55 8,0 C 8,9 C 41 % 1013,5 hPa 0,0 mm 8,0 km/h (2 Bft) N 360 -4,4 C 5,2 km/h (1 Bft)
06.02.2016 23:00 6,7 C 7,9 C 42 % 1013,5 hPa 0,0 mm 3,6 km/h (1 Bft) O 90 -5,3 C 2,8 km/h (1 Bft)
06.02.2016 23:05 6,3 C 7,2 C 43 % 1013,4 hPa 0,0 mm 1,6 km/h (1 Bft) N 360 -5,3 C 0,0 km/h (0 Bft)
06.02.2016 23:10 6,5 C 6,5 C 43 % 1013,4 hPa 0,0 mm 0,5 km/h (0 Bft) O-SO 112 -5,2 C 0,0 km/h (0 Bft)
06.02.2016 23:15 6,5 C 6,4 C 43 % 1013,4 hPa 0,0 mm 0,3 km/h (0 Bft) S-SO 157 -5,2 C 0,0 km/h (0 Bft)
06.02.2016 23:20 7,1 C 6,8 C 43 % 1013,4 hPa 0,0 mm 0,5 km/h (0 Bft) O 90 -4,6 C 3,6 km/h (1 Bft)
06.02.2016 23:25 6,9 C 6,7 C 44 % 1013,3 hPa 0,0 mm 1,3 km/h (1 Bft) N-NW 337 -4,5 C 8,5 km/h (2 Bft)
06.02.2016 23:30 6,6 C 6,7 C 44 % 1013,3 hPa 0,0 mm 1,8 km/h (1 Bft) O-NO 67 -4,8 C 0,0 km/h (0 Bft)
06.02.2016 23:35 6,9 C 6,9 C 45 % 1013,3 hPa 0,0 mm 1,6 km/h (1 Bft) O-SO 112 -4,2 C 0,0 km/h (0 Bft)
06.02.2016 23:40 7,4 C 7,4 C 45 % 1013,3 hPa 0,0 mm 2,3 km/h (1 Bft) S 180 -3,7 C 3,6 km/h (1 Bft)
06.02.2016 23:45 7,1 C 7,5 C 45 % 1012,7 hPa 0,0 mm 2,8 km/h (1 Bft) O-SO 112 -4,0 C 9,1 km/h (2 Bft)
06.02.2016 23:50 8,6 C 8,5 C 43 % 1012,7 hPa 0,0 mm 4,4 km/h (1 Bft) N-NO 22 -3,3 C 6,5 km/h (2 Bft)
06.02.2016 23:55 8,9 C 8,7 C 41 % 1012,7 hPa 0,0 mm 6,5 km/h (2 Bft) W-SW 247 -3,6 C 24,9 km/h (4 Bft)
_ Min-Zeit 01:00 01:00 22:05 23:55 - 18:55 - - 23:05 23:35
Minimum _ -1,6 C -1,9 C 40 % 1012,7 hPa - 0,0 km/h (0 Bft) - - -5,3 C 0,0 km/h (0 Bft)
_ Max-Zeit 14:25 15:00 03:20 00:20 23:55 22:50 - - 14:25 23:55
Maximum _ 12,4 C 16,9 C 91 % 1025,6 hPa 0,0 mm 9,3 km/h
W-SW (2 Bft)
- - 3,1 C 24,9 km/h
W-SW (4 Bft)
Durchschnitt _ 5,0 C 5,8 C 68 % 1020,7 hPa #0,0 mm 1,2 km/h (1 Bft) O-SO - -1,0 C 1,8 km/h (1 Bft)